Notices

What's New in latest Release from April 7th, 2021:

- Updated Glossary, including Speed of Maximum Gust, and Total Hourly Precipitation

- Updated national and regional climate services offices contacts and prices information

- Addition of station inventory lists for 1981-2010, 1971-2000, and 1961-1990 Normals.

If you haven't already, please take our survey and provide feedback about our website: https://eccc.sondage-survey.ca/f/LanguageSelection.aspx?s=442ca660-fcf1-47c0-95a9-59707d6fd709

Hourly Data Report for December 10, 2004

SHERBROOKE A
QUEBEC

45°26'00.000" N
71°41'00.000" W
241.40 m
7028124
71610
YSC

Download Data

Hourly Data (December 2004)
Hourly Data Report for December 10, 2004
TIME
LST
Temp Definition
°C
Dew Point Definition
°C
Rel Hum Definition
%
Precip. Amount Definition
mm

Wind Dir Definition
10's deg

Wind Spd Definition
km/h
Visibility Definition
km
Stn Press Definition
kPa
Hmdx Definition


Wind Chill Definition


Weather Definition


00:00 -5.1 -6.9 87   9 6 15.0 98.80   -8  
01:00 -4.9 -6.9 86   6 9 15.0 98.77   -9  
02:00 -4.8 -6.7 87   9 6 15.0 98.82   -8  
03:00 -4.1 -6.2 85   6 6 15.0 98.79   -7  
04:00 -4.1 -6.1 86   8 7 15.0 98.74   -7 Snow
05:00 -4.0 -6.0 86     0 4.0 98.67     Snow
06:00 -4.0 -5.9 87   6 7 6.4 98.59   -7 Snow
07:00 -3.7 -5.5 87   8 6 11.3 98.69   -6  
08:00 -3.4 -5.3 87   7 6 9.7 98.66   -6 Snow
09:00 -2.8 -4.9 85   5 11 9.7 98.67   -7 Snow
10:00 -2.4 -4.4 86   5 11 16.1 98.60   -6 Cloudy
11:00 -1.1 -3.2 86   6 11 16.1 98.55   -5 Cloudy
12:00 0.1 -2.1 85   5 6 19.3 98.48     Cloudy
13:00 0.5 -1.6 86   6 9 19.3 98.42     Cloudy
14:00 0.7 -1.4 86   5 7 19.3 98.38     Cloudy
15:00 0.6 -1.4 86   5 11 16.1 98.35     Snow
16:00 0.2 -1.4 89   5 13 12.9 98.30     Snow
17:00 0.1 -1.2 91   6 15 12.9 98.23     Snow
18:00 0.3 -1.4 88   6 15 15.0 98.12      
19:00 0.8 -2.0 82   7 11 15.0 98.08      
20:00 0.0 -1.9 87   6 17 8.0 97.97   -5 Snow
21:00 -0.2 -2.1 87   6 13 9.7 97.92   -4 Snow
22:00 -1.0 -2.4 90   5 17 0.8 97.82   -6 Moderate Snow
23:00 -1.3 -2.9 89   6 22 4.8 97.64   -7 Snow

Notes on Data Quality.

Legend

  • E = Estimated
  • M = Missing
  • NA = Not Available*
  • [empty] = Indicates an unobserved value
Date modified: